Location: ?ejkovice
(49.0137°N, 14.3821°E)
Time: 16:37:03
(UTC+00:00)

USA 234 - Pass Details

Date: 23 May 2024
Orbit: 1100 x 1107 km, 123.0° (Epoch: 05 June)

Event Time Altitude Azimuth Distance (km) Brightness Sun altitude
Exits shadow 00:56:32 17° 180° (S) 2,455 4.6 -15.6°
Maximum altitude 01:00:35 32° 231° (SW) 1,808 3.9 -15.3°
Drops below altitude 10° 01:06:18 10° 292° (WNW) 2,964 5.4 -14.8°
Sets 01:09:07 0° 302° (WNW) 3,924 6.2 -14.6°
